sat.trackr.live / text

‹ back to catalog

STARLINK-5970

NORAD 56450 · 2023-064C

PAYLOAD ACTIVE UNKNOWN

§ Identity

Operator
Country
US
Launch date
2023-05-10
Launch site
AFWTR
Launch vehicle
Mass (kg)
RCS (m²)

Purposes: comms

External: N2YO · Heavens-Above · Gunter

§ Orbital elements

Epoch: 2026-09-20T11:40:49.743840Z

Period
96.11 min
Inclination
70.0007°
Eccentricity
0.0003068
Mean motion
14.98332544 rev/d
Perigee alt
569.9 km
Apogee alt
574.2 km
Semi-major
6,950.2 km
B*
3.6546e-5
RAAN
13.3511°
Arg perigee
270.2716°
Mean anomaly
89.8091°
Rev number
18,442

§ Raw data

STARLINK-59701 56450U 23064C   26263.48668685  .00000343  00000+0  36546-4 0  99922 56450  70.0007  13.3511 0003068 270.2716  89.8091 14.98332544184429

JSON: /api/v1/satellites/56450 · /tle

For live sub-satellite position, see the globe view (requires WebGL).

§ Visibility from observer

Set your observer location to see the next 7 days of passes ≥ 10°. The values pass through the URL so the page stays shareable.

No JS? Fill the form by hand. The geolocation button needs JavaScript.